Regional Weather Roundup
Issued by NWS Jackson, KY

Home | Current Version | Previous Version | Text Only | Print | Product List | Glossary Off
Versions: 1 2 3 4 5 6 7 8 9 10 11 12 13 14 15 16 17 18 19 20 21 22 23 24 25 26 27 28 29 30 31 32 33 34 35 36 37 38 39 40 41 42 43 44 45 46 47 48 49

000
ASUS43 KJKL 310710
RWRJKL

EAST KENTUCKY HOURLY WEATHER ROUNDUP
NATIONAL WEATHER SERVICE JACKSON KY
300 AM EDT MON AUG 31 2015

NOTE: "FAIR" INDICATES FEW OR NO CLOUDS BELOW 12,000 FEET WITH
NO SIGNIFICANT WEATHER AND/OR OBSTRUCTIONS TO VISIBILITY.

* THESE REPORTS ARE NOT UNDER NWS QUALITY CONTROL AND MAY NOT
  REPORT WEATHER SUCH AS PRECIPITATION AND FOG.

KYZ079-080-083-085-087-088-110-112-115-119-120-310800
...EASTERN KENTUCKY...

CITY           SKY/WX    TMP DP  RH WIND       PRES   REMARKS
JACKSON        CLOUDY    70  65  84 CALM      30.12F
LONDON         CLOUDY    69  64  84 CALM      30.12F
SOMERSET*        N/A     64  64 100 CALM      30.12S FOG
MONTICELLO*    FOG       63  63 100 CALM      30.14S VSB 1
WILLIAMSBURG*  CLEAR     64  64 100 SE3       30.12F
MIDDLESBORO*   MOCLDY    67  66  98 CALM      30.13S
HAZARD APT*    SUNNY     68  68 100 CALM      30.12S
BLACK MTN*       N/A     61  57  88 S2          N/A
PIKEVILLE APT* CLEAR     68  66  94 CALM      30.12F
BIG SANDY*     CLOUDY    68  67  98 CALM      30.12S
MOREHEAD APT*  PTSUNNY   68  64  88 CALM      30.12F
$$

KYZ035-036-041-042-044-050-067-078-099-310800
...CENTRAL KENTUCKY...

CITY           SKY/WX    TMP DP  RH WIND       PRES   REMARKS
MT STERLING*   CLEAR     64  64 100 SW3       30.12S
FLEMING/MASON* CLEAR     68  64  88 S3        30.11F
DANVILLE*      CLEAR     63  61  94 CALM      30.11F
RICHMOND*      CLEAR     64  63  94 CALM      30.10F
LEXINGTON      CLEAR     68  64  87 S3        30.10F
FRANKFORT      PTCLDY    68  65  90 CALM      30.08F
$$

KYZ091>093-OHZ055-061-077-WVZ005-015-034-035-042-310800
...SOUTHERN OHIO/WEST VIRGINIA...

CITY           SKY/WX    TMP DP  RH WIND       PRES   REMARKS
COVINGTON      PTCLDY    69  66  90 SW3       30.09S
COLUMBUS       PTCLDY    70  65  84 CALM      30.07F
DAYTON         CLEAR     70  66  87 S6        30.09S
WILMINGTON     CLEAR     67  64  90 SW3       30.09F
HUNTINGTON     MOCLDY    67  66  97 CALM      30.09F
CHARLESTON     MOCLDY    67  66  97 CALM      30.10F FOG
PINEVILLE*     CLOUDY    66  66 100 MISG      30.20S FOG
BECKLEY        CLOUDY    66  59  78 SE3       30.18F
BLUEFIELD      CLOUDY    66  59  78 CALM      30.20F
$$

VAZ002-007-008-TNZ017-027-036-066-071-310800
...SOUTHWEST VIRGINIA/EAST TENNESSEE...

CITY           SKY/WX    TMP DP  RH WIND       PRES   REMARKS
WISE*          CLOUDY    64  57  77 CALM      30.19S
JONESVILLE*    CLOUDY    66  64  94 CALM      30.16S
ABINGDON*      CLOUDY    68  62  80 CALM      30.16S
BRISTOL        CLOUDY    66  64  93 SW5       30.13F
OAK RIDGE      PTCLDY    70  64  81 CALM      30.12F
CROSSVILLE     CLOUDY    68  63  84 W3        30.15F
NASHVILLE      PTCLDY    69  64  84 S3        30.09S
$$

...KEY TO REMARKS...
VSB - VISIBILITY IN MILES
WCI - WIND CHILL INDEX
HX  - HEAT INDEX

$$



USA.gov is the U.S. government's official web portal to all federal, state and local government web resources and services.